Temperature
20 19 19 19 19 19 19 19 19 19 19 19 19 19 19 19 19 19 19 19 19 19 19 19 19 19 19 18 18 18 18 18 18 18 18 18 18 18 18 18 18 18 18
20 19 19 19 19 19 19 19 19 19 19 19 19 19 19 19 19 19 19 19 19 19 19 19 19 18 18 18 19 18 18 18 18 18 18 18 18 18 18 18 18 18 18
20 19 19 19 19 19 19 19 19 19 19 19 19 19 19 19 19 19 19 19 19 19 19 19 19 19 18 18 19 18 18 18 18 18 18 18 18 18 18 18 18 18 18
20 19 19 19 19 19 19 19 19 19 19 19 19 19 19 19 19 19 19 19 19 19 19 19 19 19 18 18 18 18 18 18 18 18 18 18 18 18 18 18 18 18 18
20 19 19 19 19 19 19 19 19 19 19 19 19 19 19 19 19 19 19 19 19 19 19 19 19 18 18 18 18 18 18 18 18 18 18 18 18 18 18 18 18 18 17
20 19 19 19 19 19 19 19 19 19 19 19 19 19 19 19 19 19 19 19 19 19 19 19 18 18 18 18 18 18 18 18 18 18 18 18 18 18 18 18 18 18 17
20 19 19 19 19 19 19 19 19 19 19 19 19 19 19 19 19 19 19 19 19 19 19 19 18 18 18 18 18 18 18 18 18 18 18 18 18 18 18 18 18 18 18
20 19 19 19 19 19 19 19 19 19 19 19 19 19 19 19 19 19 19 19 19 19 18 18 18 18 18 18 18 18 18 18 18 18 18 18 18 18 18 18 18 18 18
19 19 19 19 19 19 19 19 19 19 19 19 19 19 19 19 19 19 19 19 19 18 18 18 18 18 18 18 18 18 18 18 18 18 18 18 18 18 18 18 18 18 18
19 19 19 19 19 19 19 19 19 19 19 19 19 19 19 19 19 19 19 18 18 18 18 18 18 18 18 18 18 18 18 18 18 18 18 18 18 18 18 18 18 17 17
19 19 19 19 19 19 19 19 19 19 19 19 19 19 19 19 19 19 18 18 18 18 18 18 18 18 18 18 18 18 18 18 18 18 18 18 18 18 18 18 17 17 17
19 19 19 19 19 19 19 19 19 19 19 19 19 19 19 19 19 18 18 18 18 18 18 18 18 18 18 18 18 18 18 18 18 18 18 18 18 18 18 18 18 17 17
19 19 19 19 19 19 19 19 19 19 19 19 19 19 19 18 18 18 18 18 18 18 18 18 18 18 18 18 18 18 18 18 18 18 18 18 18 18 18 18 18 17 17
19 19 19 19 19 19 19 19 19 19 19 19 19 19 19 19 18 18 18 18 18 18 18 18 18 18 18 18 18 18 18 18 18 18 18 18 18 18 18 18 17 17 17
19 19 19 19 19 19 19 19 19 19 19 19 19 18 19 19 19 18 18 18 18 18 18 18 18 18 18 17 18 18 18 18 18 18 18 18 18 18 18 18 18 17 17
20 19 19 19 19 19 19 19 19 19 19 19 19 18 18 18 18 18 18 18 18 18 18 18 18 18 18 18 18 18 18 18 18 18 18 18 18 18 18 18 18 18 17
20 20 19 19 19 19 19 19 19 19 19 19 19 18 18 18 18 18 18 18 18 18 18 18 18 18 18 18 18 18 18 18 18 18 18 18 18 18 18 18 18 18 18
20 20 19 19 19 19 19 19 19 19 19 19 19 19 18 18 18 18 18 18 18 18 18 18 18 18 18 18 18 18 18 18 18 18 18 18 18 18 18 18 18 18 18
20 20 20 19 19 19 19 19 19 19 19 19 19 19 18 18 18 18 18 18 18 18 18 18 18 18 18 18 18 18 18 18 18 18 18 18 18 18 18 18 18 18 18
20 20 20 20 19 19 19 19 19 19 19 19 19 18 18 18 18 18 18 18 18 18 18 18 18 17 18 18 18 18 18 18 18 18 18 18 18 18 18 18 18 18 18
20 20 20 20 19 19 19 19 19 19 19 19 19 18 18 18 18 18 18 18 18 18 18 18 18 18 18 17 17 18 18 18 18 18 18 18 18 18 18 18 18 18 18
20 20 20 20 20 19 19 19 19 19 19 19 19 19 18 18 18 18 18 18 18 18 18 18 18 18 18 17 17 17 17 18 18 18 18 18 18 18 18 18 18 18 18
20 20 20 20 20 20 19 19 19 19 19 19 19 19 18 18 18 18 18 18 18 18 18 18 18 18 18 17 17 17 17 17 18 18 18 18 18 18 18 18 18 18 18
21 20 20 20 20 20 19 19 19 19 19 19 19 19 18 18 18 18 18 18 18 18 18 18 18 18 17 17 17 17 17 17 17 17 18 18 18 18 18 18 18 18 18
21 21 20 20 20 20 20 20 19 19 19 19 19 19 19 18 18 18 18 18 18 18 18 18 18 18 18 17 17 17 17 17 17 17 17 18 18 18 18 18 18 18 18
21 21 20 20 20 20 20 20 19 19 19 19 19 19 19 19 18 18 18 18 18 18 18 18 18 18 17 17 17 17 17 17 17 17 17 18 18 18 18 18 18 18 18
Wind_Speed
1 4 10 11 13 15 16 17 18 18 19 20 20 21 22 22 21 21 20 20 19 19 18 18 18 17 16 16 16 16 16 16 15 16 15 15 14 15 15 15 14 14 16
4 7 11 12 13 15 16 17 18 18 19 19 20 21 21 21 21 20 20 19 19 18 18 18 17 16 16 15 15 16 15 15 15 15 15 14 14 14 14 14 13 13 15
6 8 11 13 13 14 16 17 18 18 18 19 19 20 20 21 21 20 19 19 18 18 18 17 16 15 15 15 15 15 15 14 14 14 13 11 11 13 13 13 14 14 14
6 7 10 13 13 15 16 16 18 18 18 18 19 19 19 20 20 19 19 18 18 18 17 16 16 15 15 15 14 14 14 13 13 13 10 10 10 12 13 13 13 13 13
5 7 10 13 14 15 16 16 17 17 17 18 18 19 19 19 19 19 18 18 18 18 17 16 15 14 14 14 13 13 13 12 12 10 9 9 9 12 12 12 12 13 12
4 7 10 13 14 15 16 16 17 17 17 17 17 17 18 18 18 18 17 17 17 17 16 15 14 13 13 12 12 12 12 11 10 9 8 8 9 11 11 12 12 12 12
5 6 9 12 14 15 15 16 16 16 16 16 16 16 17 17 17 17 17 17 17 16 15 14 13 12 11 11 11 11 11 10 9 8 7 7 8 10 11 11 11 11 11
4 5 7 11 12 14 14 15 15 15 16 15 15 16 16 16 16 16 16 16 16 15 14 13 12 11 10 10 10 9 9 9 8 7 7 7 9 10 11 11 11 10 10
5 5 5 7 10 12 13 13 14 14 15 15 15 15 15 15 15 15 15 15 15 14 13 11 10 9 9 9 9 8 7 7 7 6 7 7 9 10 10 11 11 10 10
5 4 4 5 6 8 10 13 13 13 14 14 14 14 14 14 14 14 13 14 14 13 11 10 8 8 8 8 7 6 5 6 6 6 6 7 9 10 10 10 10 10 10
4 3 4 4 4 6 8 10 11 12 13 12 12 12 11 9 9 10 11 12 13 11 10 8 7 6 6 6 6 5 3 3 5 5 6 8 9 10 10 10 10 10 10
3 3 3 3 3 4 6 6 6 7 8 8 8 8 8 7 7 8 9 11 11 10 9 7 6 5 4 3 3 3 1 2 4 4 6 8 9 9 10 10 11 10 9
4 3 3 3 3 3 3 5 4 5 6 6 7 8 8 7 6 5 4 5 7 8 5 5 4 3 3 2 1 1 1 2 3 4 6 8 9 9 10 10 11 11 10
4 3 3 3 3 3 4 4 4 4 4 4 6 7 7 4 4 3 3 3 4 4 4 3 2 2 2 2 1 0 1 1 3 3 5 7 9 10 10 10 11 11 10
4 4 3 3 4 4 4 3 4 4 4 5 5 6 7 5 4 3 3 3 3 3 3 2 2 2 1 0 1 1 1 2 2 3 5 7 8 10 10 10 10 11 11
5 4 3 3 3 4 3 3 3 4 4 5 5 6 7 6 4 4 3 3 3 3 4 3 2 2 1 1 1 2 2 3 3 3 4 6 7 8 9 10 11 11 11
5 4 4 4 4 4 3 4 3 4 5 4 5 6 7 7 6 4 3 3 3 4 4 3 2 2 1 1 1 2 2 3 3 3 4 5 6 8 9 10 11 11 11
5 4 4 4 4 4 3 3 3 4 4 4 5 5 6 7 7 5 3 3 4 4 3 3 2 2 1 1 1 1 1 2 3 3 4 5 5 6 8 10 10 10 11
5 5 4 3 4 4 3 3 3 3 4 4 5 5 6 7 7 6 4 3 4 3 3 3 3 3 2 1 1 2 1 2 2 2 2 3 4 5 6 8 9 9 10
5 5 5 4 3 3 2 2 2 1 2 3 4 5 6 6 7 6 4 4 4 3 3 3 3 2 2 2 1 1 2 2 1 1 2 2 3 5 6 6 6 7 9
5 5 4 4 4 3 2 2 2 2 2 2 3 5 6 7 7 6 4 4 4 4 4 4 3 3 2 2 1 1 2 1 1 1 2 2 3 4 5 6 6 7 7
6 6 5 5 4 4 3 2 2 2 1 2 2 3 6 7 7 7 6 5 4 4 4 4 3 2 2 2 2 1 2 2 2 2 2 2 3 3 3 5 6 7 8
8 8 7 6 5 4 4 3 2 2 1 1 1 2 4 6 7 7 6 5 5 5 5 5 5 4 3 2 2 2 1 2 2 2 2 2 2 2 3 4 6 8 8
10 8 7 6 6 5 5 5 4 3 3 3 2 2 2 4 5 6 6 6 6 5 6 6 5 4 4 3 2 2 2 2 1 2 2 2 3 3 4 4 5 7 8
9 8 7 6 5 5 6 6 5 4 3 2 1 2 2 2 4 5 6 6 5 5 6 6 5 5 5 4 4 2 2 2 2 2 3 3 2 3 4 5 5 6 7
8 7 7 6 5 5 5 6 6 6 4 3 3 3 3 2 3 4 5 5 5 5 5 6 6 6 6 5 4 4 3 3 3 4 4 3 4 3 3 4 4 5 6
Wind_Direction
181 156 147 137 134 137 138 137 137 137 136 136 136 137 137 137 137 136 134 133 133 132 131 130 130 129 128 127 126 125 124 124 125 126 126 122 121 120 119 118 118 118 119
143 147 146 139 136 137 136 137 137 136 136 136 137 138 139 138 138 137 135 135 134 133 131 130 130 128 127 127 126 125 125 125 127 129 128 125 124 124 124 122 123 125 122
135 145 148 143 139 137 135 136 136 135 135 136 138 139 140 140 140 138 137 136 135 134 131 130 129 129 128 128 127 128 128 129 129 128 124 119 124 129 130 129 129 127 125
140 144 148 147 142 140 138 137 136 136 136 137 139 140 141 141 142 141 141 139 137 135 132 131 131 130 129 129 130 131 132 132 132 128 123 125 130 135 134 133 131 129 129
128 144 150 150 147 145 143 141 139 138 138 139 140 141 142 143 145 145 144 142 140 137 134 133 132 131 132 133 134 135 136 136 134 128 127 131 135 140 138 138 137 135 134
127 141 150 151 149 148 146 144 143 141 141 141 141 141 143 144 145 147 146 145 142 139 137 136 134 131 133 136 137 138 138 136 128 128 129 133 139 145 146 145 144 141 140
127 138 150 153 151 151 148 145 144 145 145 145 145 145 145 146 148 150 149 147 144 141 139 137 135 134 134 139 140 141 141 139 134 136 137 139 148 152 153 150 148 146 145
122 134 147 152 151 150 148 148 148 149 149 149 149 148 149 150 151 152 151 149 146 144 141 138 137 137 136 138 139 140 143 146 143 147 151 156 160 159 159 158 155 154 155
95 113 126 142 144 143 148 152 152 153 152 151 149 149 152 154 155 156 155 153 150 148 145 141 138 136 136 137 138 140 147 152 147 155 163 168 169 168 167 166 164 164 165
79 89 109 117 128 138 146 153 153 153 153 152 152 152 154 155 156 158 157 157 153 151 148 145 138 133 139 140 141 144 151 152 155 166 172 177 179 178 177 176 175 175 176
89 78 93 108 119 133 142 150 152 153 155 155 156 157 153 150 152 157 159 162 158 155 153 149 139 132 138 142 139 139 135 146 163 176 182 183 186 188 187 187 187 187 187
129 111 98 108 113 123 140 137 138 141 142 143 145 149 145 142 148 153 160 163 161 161 160 155 148 139 122 126 134 133 128 179 187 195 195 191 193 194 193 193 195 195 196
141 132 113 112 112 119 124 124 122 128 130 133 140 143 144 141 145 145 151 165 162 158 150 150 141 130 115 102 95 110 203 214 206 212 204 199 200 202 201 200 201 202 203
136 149 131 120 120 123 125 128 128 131 133 141 149 149 147 141 140 142 142 148 150 154 144 139 121 120 115 121 137 213 269 246 216 213 215 207 207 210 210 209 209 210 213
161 163 148 139 140 133 130 143 143 149 155 158 157 159 160 155 156 149 144 154 159 159 152 138 130 125 127 159 226 232 255 270 233 213 219 217 214 216 219 220 220 221 221
177 176 163 151 151 138 139 149 153 160 162 162 169 175 172 172 166 159 157 163 174 175 171 166 166 160 174 215 241 256 253 249 236 225 227 227 221 219 224 228 231 231 233
181 175 173 167 150 147 151 163 163 164 166 171 177 179 178 177 175 170 166 173 187 176 166 165 161 151 171 197 228 248 248 246 242 233 230 233 228 224 225 230 235 236 238
171 171 181 179 157 158 153 153 156 163 169 179 182 183 183 184 180 174 175 185 186 172 162 160 166 156 181 201 228 257 258 258 254 241 230 227 227 228 228 232 238 243 243
177 174 177 174 164 166 158 146 150 157 172 183 182 188 190 188 181 179 186 194 183 172 170 177 168 166 180 210 245 259 264 263 255 249 237 230 229 229 232 238 242 246 247
177 175 176 168 161 151 140 124 118 136 171 184 190 196 189 189 184 183 190 191 180 170 180 178 168 165 177 191 243 291 299 285 267 247 241 240 237 238 240 239 245 255 256
180 181 181 172 167 149 148 159 165 186 185 193 205 204 195 193 188 188 192 184 178 183 189 178 160 164 169 148 112 342 333 311 283 261 245 244 249 248 246 240 242 247 255
192 196 187 184 176 172 176 172 168 159 177 195 206 204 199 195 192 194 187 191 184 180 179 178 166 167 183 162 148 100 343 329 309 279 261 246 256 250 245 245 244 246 248
197 200 198 191 184 180 170 143 124 91 66 109 183 204 201 198 199 201 198 193 186 184 193 195 186 182 191 190 177 161 171 245 296 296 274 258 264 257 254 253 249 249 247
204 199 190 186 183 178 168 166 169 180 198 215 201 200 198 197 200 202 203 199 193 192 197 203 196 188 181 199 199 199 202 188 215 291 289 267 268 266 264 263 261 256 247
195 191 186 180 183 179 175 180 181 193 203 200 185 188 201 204 206 204 202 200 199 200 201 203 198 195 196 200 198 193 205 214 215 226 274 289 289 267 260 259 259 260 255
186 185 180 176 189 183 181 184 189 194 195 193 207 208 213 216 215 213 207 201 202 203 204 207 206 204 206 208 208 202 198 205 211 213 243 269 283 282 271 258 256 258 256
Height
1487 1485 1488 1489 1488 1492 1496 1498 1500 1502 1505 1507 1509 1512 1514 1516 1519 1521 1524 1526 1529 1531 1534 1536 1538 1541 1543 1544 1546 1548 1549 1551 1552 1553 1555 1556 1557 1558 1559 1560 1561 1563 1563
1488 1488 1490 1491 1493 1495 1498 1500 1502 1504 1507 1509 1511 1513 1516 1518 1521 1523 1526 1528 1531 1533 1536 1538 1540 1543 1544 1546 1548 1549 1551 1552 1554 1555 1556 1557 1559 1560 1561 1562 1563 1564 1565
1489 1490 1492 1494 1495 1498 1500 1502 1504 1506 1508 1511 1513 1515 1518 1520 1523 1525 1528 1530 1533 1535 1537 1540 1542 1544 1546 1548 1549 1551 1552 1554 1555 1556 1558 1559 1560 1561 1562 1563 1565 1566 1567
1490 1491 1493 1495 1497 1499 1501 1504 1506 1508 1510 1512 1515 1517 1519 1522 1524 1527 1529 1532 1534 1537 1539 1541 1543 1546 1547 1549 1551 1552 1554 1555 1556 1558 1559 1560 1561 1563 1564 1565 1566 1567 1568
1490 1492 1494 1497 1499 1501 1503 1506 1508 1510 1512 1514 1516 1519 1521 1523 1526 1528 1531 1534 1536 1538 1540 1543 1545 1547 1549 1550 1552 1554 1555 1557 1558 1559 1560 1561 1563 1564 1565 1566 1568 1569 1570
1492 1493 1496 1498 1501 1503 1505 1507 1509 1512 1514 1516 1518 1520 1523 1525 1527 1530 1533 1535 1537 1539 1542 1544 1546 1548 1550 1552 1553 1555 1557 1558 1559 1560 1562 1563 1564 1565 1566 1567 1569 1570 1571
1493 1495 1497 1500 1502 1504 1506 1509 1511 1513 1515 1517 1520 1522 1524 1527 1529 1532 1534 1537 1539 1541 1543 1545 1547 1549 1551 1553 1555 1556 1558 1560 1561 1562 1563 1564 1565 1566 1568 1569 1570 1571 1572
1495 1496 1498 1501 1503 1505 1508 1510 1512 1514 1517 1519 1521 1523 1526 1528 1531 1533 1536 1538 1540 1542 1544 1546 1548 1550 1552 1554 1556 1558 1559 1561 1562 1563 1564 1565 1566 1567 1568 1569 1571 1571 1573
1497 1497 1499 1502 1504 1507 1509 1511 1514 1516 1518 1520 1523 1525 1527 1530 1532 1535 1537 1539 1541 1543 1545 1547 1549 1551 1553 1555 1557 1558 1560 1562 1563 1564 1565 1566 1567 1568 1569 1570 1571 1572 1573
1500 1500 1501 1504 1506 1508 1511 1513 1515 1517 1520 1522 1524 1526 1529 1531 1533 1536 1538 1540 1542 1544 1547 1548 1550 1551 1553 1555 1557 1559 1561 1563 1564 1565 1566 1567 1568 1569 1570 1570 1571 1572 1573
1502 1502 1504 1506 1508 1510 1512 1514 1516 1519 1522 1524 1526 1528 1530 1532 1534 1536 1539 1540 1542 1545 1547 1549 1551 1552 1554 1556 1558 1560 1562 1563 1564 1565 1566 1567 1568 1569 1570 1571 1571 1572 1573
1505 1505 1506 1508 1510 1512 1514 1516 1518 1520 1523 1525 1527 1529 1531 1533 1535 1537 1539 1541 1543 1546 1548 1550 1552 1553 1555 1557 1559 1561 1562 1563 1564 1565 1566 1567 1568 1569 1570 1570 1571 1572 1573
1507 1508 1509 1510 1512 1513 1515 1517 1519 1521 1523 1526 1528 1530 1532 1534 1536 1538 1540 1543 1545 1547 1549 1551 1552 1554 1556 1557 1559 1561 1562 1563 1564 1565 1566 1567 1568 1568 1569 1570 1571 1571 1572
1509 1510 1511 1512 1513 1515 1516 1518 1520 1522 1524 1527 1529 1531 1533 1535 1537 1539 1541 1543 1545 1547 1549 1551 1553 1555 1556 1558 1559 1561 1562 1563 1564 1565 1566 1567 1568 1568 1569 1569 1570 1571 1571
1510 1511 1512 1514 1515 1516 1517 1519 1521 1523 1525 1528 1530 1532 1534 1536 1538 1540 1542 1544 1546 1547 1549 1552 1553 1555 1557 1559 1560 1561 1563 1563 1564 1565 1566 1567 1567 1568 1568 1569 1569 1570 1570
1511 1512 1513 1515 1516 1517 1518 1520 1522 1524 1526 1528 1531 1533 1535 1537 1539 1540 1542 1544 1546 1549 1550 1552 1554 1555 1557 1559 1560 1561 1562 1563 1563 1564 1565 1566 1567 1567 1568 1568 1568 1569 1569
1512 1513 1514 1516 1517 1518 1519 1520 1522 1524 1526 1528 1531 1533 1535 1537 1539 1541 1542 1545 1547 1549 1551 1553 1554 1555 1557 1558 1559 1560 1561 1562 1563 1563 1564 1565 1566 1566 1567 1567 1567 1568 1568
1513 1514 1515 1517 1518 1519 1520 1521 1523 1525 1526 1529 1531 1533 1535 1537 1539 1541 1543 1545 1547 1549 1551 1552 1554 1555 1556 1557 1559 1560 1561 1561 1562 1563 1563 1564 1565 1565 1566 1566 1566 1566 1566
1513 1514 1516 1517 1518 1519 1521 1522 1524 1525 1527 1529 1531 1532 1535 1537 1539 1541 1543 1545 1547 1549 1550 1552 1553 1554 1556 1557 1558 1559 1560 1560 1561 1561 1562 1563 1564 1564 1564 1565 1565 1565 1565
1513 1515 1516 1517 1519 1520 1521 1523 1524 1526 1527 1529 1530 1532 1534 1536 1539 1541 1543 1544 1546 1548 1550 1551 1552 1554 1555 1556 1557 1557 1558 1559 1560 1560 1561 1561 1562 1562 1562 1563 1563 1563 1563
1513 1514 1516 1517 1518 1520 1521 1523 1524 1525 1527 1528 1530 1531 1533 1536 1538 1540 1542 1544 1545 1547 1549 1550 1551 1553 1554 1555 1555 1556 1556 1557 1558 1559 1559 1560 1560 1560 1560 1561 1561 1561 1561
1511 1513 1514 1516 1518 1520 1521 1523 1524 1525 1526 1528 1529 1530 1532 1535 1537 1539 1541 1542 1544 1546 1548 1549 1550 1551 1552 1554 1554 1555 1555 1557 1556 1557 1557 1557 1558 1558 1558 1559 1559 1559 1559
1509 1511 1513 1515 1517 1519 1521 1523 1524 1525 1526 1527 1528 1529 1531 1534 1536 1538 1540 1541 1543 1544 1546 1547 1548 1549 1550 1552 1553 1554 1554 1554 1554 1555 1555 1555 1556 1556 1556 1556 1556 1556 1556
1506 1509 1511 1514 1516 1518 1520 1521 1523 1524 1524 1526 1527 1528 1530 1532 1535 1536 1538 1540 1541 1543 1544 1546 1547 1548 1549 1549 1551 1552 1554 1553 1554 1552 1552 1553 1553 1553 1553 1553 1553 1553 1553
1503 1506 1509 1512 1514 1516 1518 1520 1521 1522 1524 1525 1526 1528 1529 1532 1533 1535 1536 1538 1539 1541 1542 1543 1545 1546 1547 1548 1549 1550 1551 1551 1552 1551 1550 1550 1550 1550 1550 1550 1550 1550 1550
1502 1504 1506 1510 1512 1515 1516 1518 1519 1520 1522 1523 1524 1526 1528 1530 1531 1533 1535 1536 1537 1538 1540 1541 1542 1544 1545 1545 1546 1547 1548 1549 1549 1549 1548 1547 1547 1547 1547 1547 1547 1547 1547